Regional Weather Roundup
Issued by NWS

Home | Current Version | Previous Version | Graphics & Text | Print | Product List | Glossary On
Versions: 1 2 3 4 5 6 7 8 9 10 11 12 13 14 15 16 17 18 19 20 21 22 23 24 25 26 27 28 29 30 31 32 33 34 35 36 37 38 39 40 41 42 43 44 45 46 47 48 49 50
000
ASUS45 KABQ 271710
RWRNM
NEW MEXICO REGIONAL WEATHER ROUNDUP
NATIONAL WEATHER SERVICE ALBUQUERQUE NM
1100 AM MDT SUN MAY 27 2018

NOTE: "FAIR" MEANS FEW OR NO CLOUDS BELOW 12,000 FEET AGL WITH NO
       SIGNIFICANT WEATHER OR OBSTRUCTIONS TO VISION.

      THIS PRODUCT IS RELEASED AS TWO VERSIONS.  ONE VERSION NEAR
      THE TOP OF THE HOUR CONTAINING PRELIMINARY DATA FROM ALBUQUERQUE
      AND OTHER STATIONS.  A FINAL VERSION WITH ADDITIONAL DATA IS
      ISSUED ABOUT 10 MINUTES AFTER THE HOUR.

NMZ501-503-504-510>518-271800-
NORTHWEST PLATEAU/NORTHCENTRAL MOUNTAINS

CITY           SKY/WX    TMP DP  RH WIND       PRES   REMARKS
FARMINGTON     FAIR      67  20  16 CALM      29.99F
LOS ALAMOS     FAIR      71   9   9 SE13      30.09F
SANTA FE       FAIR      75   6   7 VRB6      30.04S
TAOS           FAIR      75  12   9 S13       30.09F
ANGEL FIRE     FAIR      67  24  19 W15G24    30.14S

$$
NMZ402-403-502-505>509-271800-
WESTCENTRAL MOUNTAINS/SOUTHWEST MOUNTAINS

CITY           SKY/WX    TMP DP  RH WIND       PRES   REMARKS
GALLUP         FAIR      68  13  12 S10       30.05F
GRANTS         FAIR      70  11  10 SE13G20   30.06F
SILVER CITY    PTSUNNY   77  11   8 W5        30.03S

$$
NMZ407-409-411-412-271800-
SOUTHERN DESERTS

CITY           SKY/WX    TMP DP  RH WIND       PRES   REMARKS
DEMING         FAIR      81  22  11 W8        29.97F
LAS CRUCES     FAIR      83  20  10 SW13      29.99S
HOLLOMAN AFB   FAIR      89  14   6 SW13G20   29.95F
ALAMOGORDO     FAIR      86  19   8 CALM      29.95F
T OR C         FAIR      83  -5   3 S8G18     29.96F

$$
NMZ519>523-271800-
CENTRAL VALLEYS/CENTRAL HIGHLANDS

CITY           SKY/WX    TMP DP  RH WIND       PRES   REMARKS
ALBUQUERQUE    FAIR      75  17  11 W6        30.00F
DOUBLE EAGLE   SUNNY     73  16  11 VRB7      30.03F
MORIARTY ARPT  FAIR      79  20  11 SE3       30.04F
CLINES CORNERS FAIR      76  18  11 SW8G25    30.09R
BELEN          FAIR      76  14   9 W3        29.99F
SOCORRO        FAIR      80  19  10 NE3       29.97F

$$
NMZ524>526-539-540-271800-
SOUTHCENTRAL MOUNTAINS

CITY           SKY/WX    TMP DP  RH WIND       PRES   REMARKS
RUIDOSO        NOT AVBL

$$
NMZ527>531-271800-
NORTHEAST HIGHLANDS/NORTHEAST PLAINS

CITY           SKY/WX    TMP DP  RH WIND       PRES   REMARKS
LAS VEGAS      FAIR      79  16   9 S20G25    30.04S
RATON          FAIR      76  51  41 S12       30.00S
CLAYTON        FAIR      78  57  48 S7        29.93F

$$
NMZ532>537-271800-
EASTCENTRAL PLAINS

CITY           SKY/WX    TMP DP  RH WIND       PRES   REMARKS
TUCUMCARI      FAIR      89  46  22 VRB6      29.85S
CANNON AFB     FAIR      87  49  26 S8        29.91S
CLOVIS AIRPORT FAIR      89  52  28 S14       29.90F

$$
NMZ028-029-538-271800-
SOUTHEAST PLAINS

CITY           SKY/WX    TMP DP  RH WIND       PRES   REMARKS
ROSWELL        FAIR      95  36  12 VRB5      29.84F
ARTESIA        FAIR      97  25   7 SW12G23   29.85F
CARLSBAD       FAIR      95  35  12 E7        29.84F
HOBBS          SUNNY     95  36  12 S22G30    29.87F


$$




USA.gov is the U.S. government's official web portal to all federal, state and local government web resources and services.